Weather Service Report


581 
ASUS45 KSLC 031610
RWRUT 

UTAH REGIONAL WEATHER ROUNDUP
NATIONAL WEATHER SERVICE SALT LAKE CITY UT
1000 AM MDT WED JUN 03 2020

UTZ001>011-023>025-031700-

NORTHERN UTAH
  
CITY           SKY/WX    TMP DP  RH WIND       PRES   REMARKS
BRIGHAM CITY   MOSUNNY   74  41  30 S6        30.15S                  
DUGWAY         PTSUNNY   82  36  19 SW1       30.17S                  
HILL AFB       MOSUNNY   72  45  37 E12       30.16S                  
LOGAN          MOSUNNY   68  50  52 N5        30.15F                  
OGDEN          MOSUNNY   77  39  25 SE5       30.14S                  
SALT LAKE CITY PTSUNNY   77  44  30 S6        30.12S                  
TOOELE VALLEY  MOSUNNY   75  52  43 W3        30.14S                  
WENDOVER       MOSUNNY   73  43  33 SE7       30.14S                  
HEBER CITY       N/A     63  45  51 CALM      30.23S                  
WEST JORDAN    MOSUNNY   75  49  38 SE7       30.16F                  

$$

UTZ011>015-024>027-031700-

CENTRAL/NORTHEAST UTAH
  
CITY           SKY/WX    TMP DP  RH WIND       PRES   REMARKS
PROVO AIRPORT  MOSUNNY   76  44  32 SE6       30.17S                  
MOAB/CANYONLAN SUNNY     84  31  14 VRB5      30.12S                  
DELTA          MOSUNNY   79  30  17 SE6       30.17S                  
PRICE          MOSUNNY   75  35  23 VRB5      30.23S                  
ROOSEVELT      SUNNY     77  34  20 CALM      30.20F                  
DUCHESNE       SUNNY     75  30  19 SW5       30.22F                  
VERNAL         SUNNY     76  34  21 VRB3      30.19S                  

$$

UTZ013>016-019>022-027-031700-

SOUTHERN UTAH
  
CITY           SKY/WX    TMP DP  RH WIND       PRES   REMARKS
BRYCE CANYON   CLOUDY    69  31  24 CALM      30.38S                  
CEDAR CITY     PTSUNNY   68  43  40 N6        30.22S                  
MILFORD        PTSUNNY   72  36  26 S7        30.18S                  
PANGUITCH      MOSUNNY   64  30  27 SW9       30.35S                  
ST GEORGE      MOSUNNY   79  36  21 CALM      30.07R                  
HANKSVILLE     MOSUNNY   81  30  16 CALM      30.15F                  
BLANDING         N/A     80  30  16 CALM      30.29S                  

$$

REGIONAL REPORTS     COLORADO/ARIZONA
  
CITY           SKY/WX    TMP DP  RH WIND       PRES   REMARKS
CRAIG, CO      SUNNY     70  42  36 NE7       30.25F                  
GRAND JUNCTION SUNNY     79  28  15 SE13      30.16S                  
RIFLE, CO      MOSUNNY   72  34  24 CALM      30.22F                  
MONTROSE, CO   SUNNY     75  33  21 CALM      30.24F                  
CORTEZ, CO     SUNNY     79  42  26 CALM      30.22F                  
COLORADO CITY    N/A     81  41  24 SE6       30.19S                  
PAGE, AZ       MOSUNNY   85  32  15 VRB5      30.11S                  
GRAND CANYON   PTSUNNY   70  31  23 N6        30.31R                  
KINGMAN, AZ    PTSUNNY   86  35  16 NW6       30.08R                  
FLAGSTAFF, AZ  MOSUNNY   74  34  23 N5        30.30S                  

$$

REGIONAL REPORTS    NEVADA/IDAHO/WYOMING
  
CITY           SKY/WX    TMP DP  RH WIND       PRES   REMARKS
LAS VEGAS, NV  PTSUNNY   91  34  13 VRB3      29.98R                  
ELY, NY        MOSUNNY   72  32  23 S9        30.28S                  
ELKO, NV       SUNNY     70  39  32 VRB3      30.20F                  
POCATELLO, ID  MOSUNNY   69  50  50 S3        30.14F                  
BURLEY, ID     MOSUNNY   67  51  56 CALM      30.11F                  
EVANSTON, WY   MOSUNNY   67  39  35 SW12      30.30S                  
ROCK SPRINGS,  SUNNY     71  34  25 SW13G20   30.25F                  
KEMMERER, WY   MOSUNNY   68  36  30 W13       30.30F                  

$$
  

Return to Home page


Western Regional Climate Center, wrcc@dri.edu